TimeCDT,TemperatureF,Dew PointF,Humidity,Sea Level PressureIn,VisibilityMPH,Wind Direction,Wind SpeedMPH,Gust SpeedMPH,PrecipitationIn,Events,Conditions,WindDirDegrees,DateUTC
12:52 AM,46.0,37.0,71,30.06,10.0,North,9.2,-,N/A,,Clear,350,2012-11-01 05:52:00
1:52 AM,43.0,37.9,82,30.06,10.0,WNW,4.6,-,N/A,,Clear,290,2012-11-01 06:52:00
2:52 AM,39.9,37.0,89,30.06,10.0,NW,6.9,-,N/A,,Clear,320,2012-11-01 07:52:00
3:26 AM,39.2,37.4,93,30.06,10.0,NNW,6.9,-,N/A,,Scattered Clouds,340,2012-11-01 08:26:00
3:33 AM,41.0,39.2,93,30.06,6.0,North,9.2,-,N/A,,Mostly Cloudy,360,2012-11-01 08:33:00
3:52 AM,41.0,39.0,93,30.05,3.0,North,8.1,-,N/A,,Overcast,360,2012-11-01 08:52:00
3:57 AM,41.0,39.2,93,30.05,1.8,NNE,9.2,-,N/A,,Overcast,20,2012-11-01 08:57:00
4:03 AM,41.0,39.2,93,30.05,0.8,NNE,8.1,-,N/A,,Overcast,20,2012-11-01 09:03:00
4:52 AM,39.9,39.9,100,30.05,0.2,NNW,6.9,-,N/A,Fog,Fog,340,2012-11-01 09:52:00
5:52 AM,39.9,39.9,100,30.07,0.5,North,3.5,-,N/A,Fog,Fog,10,2012-11-01 10:52:00
6:52 AM,39.0,39.0,100,30.09,0.8,North,4.6,-,N/A,,Mist,360,2012-11-01 11:52:00
7:52 AM,37.9,37.9,100,30.08,0.8,ENE,6.9,-,N/A,,Mist,70,2012-11-01 12:52:00
8:52 AM,39.0,39.0,100,30.08,0.2,ENE,4.6,-,N/A,Fog,Fog,70,2012-11-01 13:52:00
9:52 AM,39.0,39.0,100,30.09,0.2,East,5.8,-,N/A,Fog,Fog,80,2012-11-01 14:52:00
10:52 AM,39.9,39.9,100,30.08,0.2,East,10.4,-,N/A,Fog,Fog,90,2012-11-01 15:52:00
11:52 AM,41.0,41.0,100,30.07,0.5,SSE,8.1,-,N/A,Fog,Fog,150,2012-11-01 16:52:00
12:01 PM,41.0,41.0,100,30.04,1.2,SSE,8.1,-,N/A,,Overcast,160,2012-11-01 17:01:00
12:11 PM,41.0,41.0,100,30.04,1.0,SSE,10.4,-,N/A,,Overcast,160,2012-11-01 17:11:00
12:20 PM,41.0,41.0,100,30.03,1.8,SSE,9.2,-,N/A,,Overcast,160,2012-11-01 17:20:00
12:32 PM,41.0,41.0,100,30.03,2.0,SE,9.2,-,N/A,,Overcast,140,2012-11-01 17:32:00
12:45 PM,42.8,41.0,93,30.02,3.0,SE,9.2,-,N/A,,Overcast,140,2012-11-01 17:45:00
12:52 PM,42.1,41.0,96,30.05,3.0,SE,10.4,-,N/A,,Overcast,140,2012-11-01 17:52:00
1:52 PM,44.1,41.0,89,30.01,6.0,SE,11.5,-,N/A,,Overcast,130,2012-11-01 18:52:00
2:12 PM,44.6,41.0,87,29.97,7.0,SE,10.4,-,N/A,,Overcast,130,2012-11-01 19:12:00
2:52 PM,46.0,41.0,83,29.99,9.0,ESE,11.5,-,N/A,,Overcast,110,2012-11-01 19:52:00
3:24 PM,48.2,41.0,76,29.93,10.0,ESE,13.8,-,N/A,,Mostly Cloudy,120,2012-11-01 20:24:00
3:37 PM,48.2,41.0,76,29.93,10.0,ESE,13.8,-,N/A,,Scattered Clouds,110,2012-11-01 20:37:00
3:52 PM,48.0,41.0,77,29.95,9.0,ESE,16.1,-,N/A,,Partly Cloudy,110,2012-11-01 20:52:00
4:52 PM,48.0,41.0,77,29.94,8.0,ESE,12.7,-,N/A,,Clear,110,2012-11-01 21:52:00
5:52 PM,46.9,41.0,80,29.92,6.0,ESE,13.8,-,N/A,,Haze,110,2012-11-01 22:52:00
6:52 PM,43.0,39.9,89,29.93,6.0,ESE,8.1,-,N/A,,Clear,120,2012-11-01 23:52:00
7:52 PM,41.0,39.0,93,29.94,5.0,East,8.1,-,N/A,,Clear,90,2012-11-02 00:52:00
8:52 PM,39.0,37.0,93,29.94,3.0,East,8.1,-,N/A,,Clear,80,2012-11-02 01:52:00
9:52 PM,39.9,37.9,93,29.92,4.0,ESE,6.9,-,N/A,,Clear,110,2012-11-02 02:52:00
10:52 PM,39.9,37.9,93,29.91,4.0,East,6.9,-,N/A,,Clear,80,2012-11-02 03:52:00
11:52 PM,39.0,37.0,93,29.91,3.0,East,6.9,-,N/A,,Clear,80,2012-11-02 04:52:00